Year,Month,Day,Hour,Minute,Value (Times are PST for temperature in C)
2014,10,27,00,00,4.90
2014,10,27,00,01,4.90
2014,10,27,00,02,4.90
2014,10,27,00,03,4.80
2014,10,27,00,04,4.80
2014,10,27,00,05,4.80
2014,10,27,00,06,4.70
2014,10,27,00,07,4.70
2014,10,27,00,08,4.70
2014,10,27,00,09,4.70
2014,10,27,00,10,4.70
2014,10,27,00,11,4.70
2014,10,27,00,12,4.70
2014,10,27,00,13,4.70
2014,10,27,00,14,4.70
2014,10,27,00,15,4.70
2014,10,27,00,16,4.70
2014,10,27,00,17,4.70
2014,10,27,00,18,4.70
2014,10,27,00,19,4.70
2014,10,27,00,20,4.70
2014,10,27,00,21,4.70
2014,10,27,00,22,4.70
2014,10,27,00,23,4.60
2014,10,27,00,24,4.60
2014,10,27,00,25,4.60
2014,10,27,00,26,4.60
2014,10,27,00,27,4.60
2014,10,27,00,28,4.60
2014,10,27,00,29,4.60
2014,10,27,00,30,4.60
2014,10,27,00,31,4.50
2014,10,27,00,32,4.50
2014,10,27,00,33,4.50
2014,10,27,00,34,4.60
2014,10,27,00,35,4.60
2014,10,27,00,36,4.60
2014,10,27,00,37,4.60
2014,10,27,00,38,4.60
2014,10,27,00,39,4.50
2014,10,27,00,40,4.50
2014,10,27,00,41,4.50
2014,10,27,00,42,4.40
2014,10,27,00,43,4.40
2014,10,27,00,44,4.40
2014,10,27,00,45,4.40
2014,10,27,00,46,4.40
2014,10,27,00,47,4.30
2014,10,27,00,48,4.30
2014,10,27,00,49,4.30
2014,10,27,00,50,4.30
2014,10,27,00,51,4.30
2014,10,27,00,52,4.20
2014,10,27,00,53,4.20
2014,10,27,00,54,4.20
2014,10,27,00,55,4.20
2014,10,27,00,56,4.20
2014,10,27,00,57,4.20
2014,10,27,00,58,4.20
2014,10,27,00,59,4.20
2014,10,27,01,00,4.20
2014,10,27,01,01,4.20
2014,10,27,01,02,4.20
2014,10,27,01,03,4.20
2014,10,27,01,04,4.20
2014,10,27,01,05,4.20
2014,10,27,01,06,4.20
2014,10,27,01,07,4.30
2014,10,27,01,08,4.30
2014,10,27,01,09,4.30
2014,10,27,01,10,4.40
2014,10,27,01,11,4.40
2014,10,27,01,12,4.40
2014,10,27,01,13,4.40
2014,10,27,01,14,4.40
2014,10,27,01,15,4.50
2014,10,27,01,16,4.50
2014,10,27,01,17,4.50
2014,10,27,01,18,4.50
2014,10,27,01,19,4.50
2014,10,27,01,20,4.50
2014,10,27,01,21,4.50
2014,10,27,01,22,4.50
2014,10,27,01,23,4.50
2014,10,27,01,24,4.60
2014,10,27,01,25,4.60
2014,10,27,01,26,4.60
2014,10,27,01,27,4.60
2014,10,27,01,28,4.60
2014,10,27,01,29,4.60
2014,10,27,01,30,4.50
2014,10,27,01,31,4.50
2014,10,27,01,32,4.50
2014,10,27,01,33,4.50
2014,10,27,01,34,4.50
2014,10,27,01,35,4.40
2014,10,27,01,36,4.40
2014,10,27,01,37,4.40
2014,10,27,01,38,4.40
2014,10,27,01,39,4.40
2014,10,27,01,40,4.40
2014,10,27,01,41,4.40
2014,10,27,01,42,4.40
2014,10,27,01,43,4.40
2014,10,27,01,44,4.40
2014,10,27,01,45,4.30
2014,10,27,01,46,4.30
2014,10,27,01,47,4.30
2014,10,27,01,48,4.30
2014,10,27,01,49,4.30
2014,10,27,01,50,4.30
2014,10,27,01,51,4.30
2014,10,27,01,52,4.30
2014,10,27,01,53,4.30
2014,10,27,01,54,4.30
2014,10,27,01,55,4.40
2014,10,27,01,56,4.40
2014,10,27,01,57,4.40
2014,10,27,01,58,4.40
2014,10,27,01,59,4.40
2014,10,27,02,00,4.50
2014,10,27,02,01,4.50
2014,10,27,02,02,4.50
2014,10,27,02,03,4.40
2014,10,27,02,04,4.40
2014,10,27,02,05,4.40
2014,10,27,02,06,4.40
2014,10,27,02,07,4.40
2014,10,27,02,08,4.40
2014,10,27,02,09,4.40
2014,10,27,02,10,4.30
2014,10,27,02,11,4.40
2014,10,27,02,12,4.40
2014,10,27,02,13,4.40
2014,10,27,02,14,4.40
2014,10,27,02,15,4.40
2014,10,27,02,16,4.40
2014,10,27,02,17,4.40
2014,10,27,02,18,4.40
2014,10,27,02,19,4.40
2014,10,27,02,20,4.40
2014,10,27,02,21,4.30
2014,10,27,02,22,4.30
2014,10,27,02,23,4.30
2014,10,27,02,24,4.30
2014,10,27,02,25,4.20
2014,10,27,02,26,4.20
2014,10,27,02,27,4.20
2014,10,27,02,28,4.20
2014,10,27,02,29,4.20
2014,10,27,02,30,4.20
2014,10,27,02,31,4.20
2014,10,27,02,32,4.20
2014,10,27,02,33,4.20
2014,10,27,02,34,4.20
2014,10,27,02,35,4.20
2014,10,27,02,36,4.20
2014,10,27,02,37,4.20
2014,10,27,02,38,4.20
2014,10,27,02,39,4.20
2014,10,27,02,40,4.20
2014,10,27,02,41,4.20
2014,10,27,02,42,4.20
2014,10,27,02,43,4.20
2014,10,27,02,44,4.20
2014,10,27,02,45,4.20
2014,10,27,02,46,4.20
2014,10,27,02,47,4.20
2014,10,27,02,48,4.20
2014,10,27,02,49,4.20
2014,10,27,02,50,4.20
2014,10,27,02,51,4.20
2014,10,27,02,52,4.20
2014,10,27,02,53,4.20
2014,10,27,02,54,4.20
2014,10,27,02,55,4.20
2014,10,27,02,56,4.20
2014,10,27,02,57,4.20
2014,10,27,02,58,4.30
2014,10,27,02,59,4.30
2014,10,27,03,00,4.40
2014,10,27,03,01,4.40
2014,10,27,03,02,4.40
2014,10,27,03,03,4.40
2014,10,27,03,06,4.40
2014,10,27,03,07,4.40
2014,10,27,03,08,4.50
2014,10,27,03,09,4.50
2014,10,27,03,10,4.50
2014,10,27,03,11,4.50
2014,10,27,03,12,4.50
2014,10,27,03,13,4.50
2014,10,27,03,14,4.40
2014,10,27,03,15,4.40
2014,10,27,03,16,4.40
2014,10,27,03,17,4.40
2014,10,27,03,18,4.30
2014,10,27,03,19,4.30
2014,10,27,03,20,4.30
2014,10,27,03,21,4.30
2014,10,27,03,22,4.30
2014,10,27,03,23,4.30
2014,10,27,03,24,4.30
2014,10,27,03,25,4.40
2014,10,27,03,26,4.40
2014,10,27,03,27,4.50
2014,10,27,03,28,4.50
2014,10,27,03,29,4.50
2014,10,27,03,30,4.50
2014,10,27,03,31,4.60
2014,10,27,03,32,4.60
2014,10,27,03,33,4.60
2014,10,27,03,34,4.60
2014,10,27,03,35,4.70
2014,10,27,03,36,4.80
2014,10,27,03,37,4.80
2014,10,27,03,38,4.90
2014,10,27,03,39,4.90
2014,10,27,03,40,4.90
2014,10,27,03,41,4.90
2014,10,27,03,42,4.90
2014,10,27,03,43,4.90
2014,10,27,03,44,4.90
2014,10,27,03,45,4.90
2014,10,27,03,46,4.90
2014,10,27,03,47,4.90
2014,10,27,03,48,4.90
2014,10,27,03,49,4.90
2014,10,27,03,50,4.90
2014,10,27,03,51,4.90
2014,10,27,03,52,5.00
2014,10,27,03,53,5.10
2014,10,27,03,54,5.10
2014,10,27,03,55,5.10
2014,10,27,03,56,5.10
2014,10,27,03,57,5.10
2014,10,27,03,58,5.10
2014,10,27,03,59,5.00
2014,10,27,04,00,4.90
2014,10,27,04,01,4.90
2014,10,27,04,02,4.90
2014,10,27,04,03,4.90
2014,10,27,04,04,4.90
2014,10,27,04,05,4.90
2014,10,27,04,06,4.90
2014,10,27,04,07,4.90
2014,10,27,04,08,4.80
2014,10,27,04,09,4.80
2014,10,27,04,10,4.80
2014,10,27,04,11,4.80
2014,10,27,04,12,4.80
2014,10,27,04,13,4.80
2014,10,27,04,14,4.80
2014,10,27,04,15,4.80
2014,10,27,04,16,4.80
2014,10,27,04,17,4.80
2014,10,27,04,18,4.80
2014,10,27,04,19,4.80
2014,10,27,04,20,4.80
2014,10,27,04,21,4.80
2014,10,27,04,22,4.80
2014,10,27,04,23,4.80
2014,10,27,04,24,4.80
2014,10,27,04,25,4.80
2014,10,27,04,26,4.80
2014,10,27,04,27,4.80
2014,10,27,04,28,4.80
2014,10,27,04,29,4.80
2014,10,27,04,30,4.80
2014,10,27,04,31,4.80
2014,10,27,04,32,4.80
2014,10,27,04,33,4.70
2014,10,27,04,34,4.70
2014,10,27,04,35,4.70
2014,10,27,04,36,4.70
2014,10,27,04,37,4.80
2014,10,27,04,38,4.80
2014,10,27,04,39,4.90
2014,10,27,04,40,4.90
2014,10,27,04,41,4.90
2014,10,27,04,42,4.90
2014,10,27,04,43,5.00
2014,10,27,04,44,5.10
2014,10,27,04,45,5.10
2014,10,27,04,46,5.10
2014,10,27,04,47,5.10
2014,10,27,04,48,5.10
2014,10,27,04,49,5.10
2014,10,27,04,50,5.10
2014,10,27,04,51,5.10
2014,10,27,04,52,5.10
2014,10,27,04,53,5.00
2014,10,27,04,54,4.90
2014,10,27,04,55,4.90
2014,10,27,04,56,4.90
2014,10,27,04,57,4.90
2014,10,27,04,58,4.90
2014,10,27,04,59,4.90
2014,10,27,05,00,4.90
2014,10,27,05,01,4.90
2014,10,27,05,02,4.90
2014,10,27,05,03,4.90
2014,10,27,05,04,4.90
2014,10,27,05,05,4.90
2014,10,27,05,06,4.90
2014,10,27,05,07,4.90
2014,10,27,05,08,4.90
2014,10,27,05,09,4.90
2014,10,27,05,10,4.90
2014,10,27,05,11,4.90
2014,10,27,05,12,4.90
2014,10,27,05,13,4.90
2014,10,27,05,14,4.90
2014,10,27,05,15,4.90
2014,10,27,05,16,4.90
2014,10,27,05,17,4.90
2014,10,27,05,18,4.90
2014,10,27,05,19,4.90
2014,10,27,05,20,4.90
2014,10,27,05,21,5.00
2014,10,27,05,22,5.10
2014,10,27,05,23,5.10
2014,10,27,05,24,5.10
2014,10,27,05,25,5.10
2014,10,27,05,26,5.10
2014,10,27,05,27,5.20
2014,10,27,05,28,5.20
2014,10,27,05,29,5.20
2014,10,27,05,30,5.20
2014,10,27,05,31,5.20
2014,10,27,05,32,5.20
2014,10,27,05,33,5.20
2014,10,27,05,34,5.20
2014,10,27,05,35,5.20
2014,10,27,05,36,5.20
2014,10,27,05,37,5.20
2014,10,27,05,38,5.20
2014,10,27,05,39,5.20
2014,10,27,05,40,5.20
2014,10,27,05,41,5.20
2014,10,27,05,42,5.30
2014,10,27,05,43,5.30
2014,10,27,05,44,5.30
2014,10,27,05,45,5.30
2014,10,27,05,46,5.30
2014,10,27,05,47,5.30
2014,10,27,05,48,5.30
2014,10,27,05,49,5.30
2014,10,27,05,50,5.30
2014,10,27,05,51,5.30
2014,10,27,05,52,5.30
2014,10,27,05,53,5.30
2014,10,27,05,54,5.30
2014,10,27,05,55,5.30
2014,10,27,05,56,5.30
2014,10,27,05,57,5.30
2014,10,27,05,58,5.30
2014,10,27,05,59,5.30
2014,10,27,06,00,5.30
2014,10,27,06,01,5.30
2014,10,27,06,02,5.30
2014,10,27,06,03,5.30
2014,10,27,06,04,5.30
2014,10,27,06,05,5.30
2014,10,27,06,06,5.30
2014,10,27,06,07,5.30
2014,10,27,06,08,5.30
2014,10,27,06,09,5.30
2014,10,27,06,10,5.30
2014,10,27,06,11,5.30
2014,10,27,06,12,5.30
2014,10,27,06,13,5.30
2014,10,27,06,14,5.30
2014,10,27,06,15,5.30
2014,10,27,06,16,5.30
2014,10,27,06,17,5.30
2014,10,27,06,18,5.30
2014,10,27,06,19,5.30
2014,10,27,06,20,5.40
2014,10,27,06,21,5.40
2014,10,27,06,22,5.40
2014,10,27,06,23,5.40
2014,10,27,06,24,5.50
2014,10,27,06,25,5.50
2014,10,27,06,26,5.60
2014,10,27,06,27,5.70
2014,10,27,06,28,5.70
2014,10,27,06,29,5.70
2014,10,27,06,30,5.80
2014,10,27,06,31,5.80
2014,10,27,06,32,5.90
2014,10,27,06,33,6.00
2014,10,27,06,34,6.00
2014,10,27,06,35,6.10
2014,10,27,06,36,6.20
2014,10,27,06,37,6.20
2014,10,27,06,38,6.20
2014,10,27,06,39,6.20
2014,10,27,06,40,6.20
2014,10,27,06,41,6.20
2014,10,27,06,42,6.20
2014,10,27,06,43,6.10
2014,10,27,06,44,6.10
2014,10,27,06,45,6.20
2014,10,27,06,46,6.20
2014,10,27,06,47,6.20
2014,10,27,06,48,6.20
2014,10,27,06,49,6.20
2014,10,27,06,50,6.10
2014,10,27,06,51,6.10
2014,10,27,06,52,6.10
2014,10,27,06,53,6.10
2014,10,27,06,54,6.10
2014,10,27,06,55,6.10
2014,10,27,06,56,6.10
2014,10,27,06,57,6.20
2014,10,27,06,58,6.20
2014,10,27,06,59,6.20
2014,10,27,07,00,6.20
2014,10,27,07,01,6.20
2014,10,27,07,02,6.20
2014,10,27,07,03,6.20
2014,10,27,07,04,6.20
2014,10,27,07,05,6.20
2014,10,27,07,06,6.20
2014,10,27,07,07,6.20
2014,10,27,07,08,6.20
2014,10,27,07,09,6.20
2014,10,27,07,10,6.20
2014,10,27,07,11,6.20
2014,10,27,07,12,6.30
2014,10,27,07,13,6.30
2014,10,27,07,14,6.40
2014,10,27,07,15,6.50
2014,10,27,07,16,6.60
2014,10,27,07,17,6.60
2014,10,27,07,18,6.60
2014,10,27,07,19,6.60
2014,10,27,07,20,6.60
2014,10,27,07,21,6.70
2014,10,27,07,22,6.70
2014,10,27,07,23,6.70
2014,10,27,07,24,6.70
2014,10,27,07,25,6.70
2014,10,27,07,26,6.70
2014,10,27,07,27,6.70
2014,10,27,07,28,6.70
2014,10,27,07,29,6.70
2014,10,27,07,30,6.70
2014,10,27,07,31,6.70
2014,10,27,07,32,6.70
2014,10,27,07,33,6.70
2014,10,27,07,34,6.80
2014,10,27,07,35,6.80
2014,10,27,07,36,6.80
2014,10,27,07,37,6.80
2014,10,27,07,38,6.90
2014,10,27,07,39,6.90
2014,10,27,07,40,6.90
2014,10,27,07,41,6.90
2014,10,27,07,42,6.90
2014,10,27,07,43,7.00
2014,10,27,07,44,7.00
2014,10,27,07,45,7.00
2014,10,27,07,46,7.00
2014,10,27,07,47,7.00
2014,10,27,07,48,7.10
2014,10,27,07,49,7.10
2014,10,27,07,50,7.10
2014,10,27,07,51,7.10
2014,10,27,07,52,7.20
2014,10,27,07,53,7.20
2014,10,27,07,54,7.20
2014,10,27,07,55,7.20
2014,10,27,07,56,7.20
2014,10,27,07,57,7.30
2014,10,27,07,58,7.30
2014,10,27,07,59,7.30
2014,10,27,08,00,7.30
2014,10,27,08,01,7.30
2014,10,27,08,02,7.30
2014,10,27,08,03,7.30
2014,10,27,08,04,7.30
2014,10,27,08,05,7.30
2014,10,27,08,06,7.30
2014,10,27,08,07,7.30
2014,10,27,08,08,7.30
2014,10,27,08,09,7.30
2014,10,27,08,10,7.30
2014,10,27,08,11,7.30
2014,10,27,08,12,7.40
2014,10,27,08,13,7.40
2014,10,27,08,14,7.40
2014,10,27,08,15,7.40
2014,10,27,08,16,7.50
2014,10,27,08,17,7.50
2014,10,27,08,18,7.60
2014,10,27,08,19,7.60
2014,10,27,08,20,7.70
2014,10,27,08,21,7.70
2014,10,27,08,22,7.70
2014,10,27,08,23,7.80
2014,10,27,08,24,7.80
2014,10,27,08,25,7.80
2014,10,27,08,26,7.80
2014,10,27,08,27,7.90
2014,10,27,08,28,7.90
2014,10,27,08,29,7.90
2014,10,27,08,30,7.90
2014,10,27,08,31,8.00
2014,10,27,08,32,8.00
2014,10,27,08,33,8.00
2014,10,27,08,34,8.00
2014,10,27,08,35,8.10
2014,10,27,08,36,8.10
2014,10,27,08,37,8.10
2014,10,27,08,38,8.10
2014,10,27,08,39,8.10
2014,10,27,08,40,8.10
2014,10,27,08,41,8.20
2014,10,27,08,42,8.20
2014,10,27,08,43,8.20
2014,10,27,08,44,8.20
2014,10,27,08,45,8.20
2014,10,27,08,46,8.20
2014,10,27,08,47,8.10
2014,10,27,08,48,8.10
2014,10,27,08,49,8.10
2014,10,27,08,50,8.10
2014,10,27,08,51,8.10
2014,10,27,08,52,8.20
2014,10,27,08,53,8.20
2014,10,27,08,54,8.20
2014,10,27,08,55,8.30
2014,10,27,08,56,8.30
2014,10,27,08,57,8.30
2014,10,27,08,58,8.40
2014,10,27,08,59,8.40
2014,10,27,09,00,8.40
2014,10,27,09,01,8.40
2014,10,27,09,02,8.50
2014,10,27,09,03,8.50
2014,10,27,09,04,8.50
2014,10,27,09,05,8.60
2014,10,27,09,06,8.60
2014,10,27,09,07,8.60
2014,10,27,09,08,8.70
2014,10,27,09,09,8.70
2014,10,27,09,10,8.70
2014,10,27,09,11,8.70
2014,10,27,09,12,8.70
2014,10,27,09,13,8.70
2014,10,27,09,14,8.80
2014,10,27,09,15,8.80
2014,10,27,09,16,8.80
2014,10,27,09,17,8.80
2014,10,27,09,18,8.80
2014,10,27,09,19,8.80
2014,10,27,09,20,8.80
2014,10,27,09,21,8.80
2014,10,27,09,22,8.80
2014,10,27,09,23,8.90
2014,10,27,09,24,8.90
2014,10,27,09,25,8.90
2014,10,27,09,26,8.90
2014,10,27,09,27,8.90
2014,10,27,09,28,8.90
2014,10,27,09,29,8.90
2014,10,27,09,30,8.90
2014,10,27,09,31,9.00
2014,10,27,09,32,9.00
2014,10,27,09,33,9.00
2014,10,27,09,34,9.00
2014,10,27,09,35,9.00
2014,10,27,09,36,9.00
2014,10,27,09,37,9.00
2014,10,27,09,38,9.10
2014,10,27,09,39,9.10
2014,10,27,09,40,9.10
2014,10,27,09,41,9.10
2014,10,27,09,42,9.10
2014,10,27,09,43,9.10
2014,10,27,09,44,9.20
2014,10,27,09,45,9.20
2014,10,27,09,46,9.20
2014,10,27,09,47,9.20
2014,10,27,09,48,9.20
2014,10,27,09,49,9.20
2014,10,27,09,50,9.20
2014,10,27,09,51,9.20
2014,10,27,09,52,9.20
2014,10,27,09,53,9.20
2014,10,27,09,54,9.20
2014,10,27,09,55,9.20
2014,10,27,09,56,9.20
2014,10,27,09,57,9.20
2014,10,27,09,58,9.20
2014,10,27,09,59,9.20
2014,10,27,10,00,9.30
2014,10,27,10,01,9.30
2014,10,27,10,02,9.30
2014,10,27,10,03,9.30
2014,10,27,10,04,9.40
2014,10,27,10,05,9.40
2014,10,27,10,06,9.40
2014,10,27,10,07,9.40
2014,10,27,10,08,9.50
2014,10,27,10,09,9.50
2014,10,27,10,10,9.50
2014,10,27,10,11,9.50
2014,10,27,10,12,9.50
2014,10,27,10,13,9.60
2014,10,27,10,14,9.60
2014,10,27,10,15,9.60
2014,10,27,10,16,9.60
2014,10,27,10,17,9.70
2014,10,27,10,18,9.70
2014,10,27,10,19,9.70
2014,10,27,10,20,9.70
2014,10,27,10,21,9.70
2014,10,27,10,22,9.70
2014,10,27,10,23,9.70
2014,10,27,10,24,9.70
2014,10,27,10,25,9.80
2014,10,27,10,26,9.80
2014,10,27,10,27,9.80
2014,10,27,10,28,9.80
2014,10,27,10,29,9.80
2014,10,27,10,30,9.80
2014,10,27,10,31,9.80
2014,10,27,10,32,9.90
2014,10,27,10,33,9.90
2014,10,27,10,34,9.90
2014,10,27,10,35,9.90
2014,10,27,10,36,9.90
2014,10,27,10,37,9.90
2014,10,27,10,38,9.90
2014,10,27,10,39,9.90
2014,10,27,10,40,9.90
2014,10,27,10,41,9.90
2014,10,27,10,42,9.90
2014,10,27,10,43,9.90
2014,10,27,10,44,9.90
2014,10,27,10,45,9.90
2014,10,27,10,46,9.90
2014,10,27,10,47,9.90
2014,10,27,10,48,9.90
2014,10,27,10,49,9.90
2014,10,27,10,50,9.90
2014,10,27,10,51,9.90
2014,10,27,10,52,9.90
2014,10,27,10,53,9.90
2014,10,27,10,54,9.90
2014,10,27,10,55,9.90
2014,10,27,10,56,9.90
2014,10,27,10,57,9.90
2014,10,27,10,58,9.90
2014,10,27,10,59,9.90
2014,10,27,11,00,9.90
2014,10,27,11,01,10.00
2014,10,27,11,02,10.10
2014,10,27,11,03,10.10
2014,10,27,11,04,10.10
2014,10,27,11,05,10.10
2014,10,27,11,06,10.10
2014,10,27,11,07,10.10
2014,10,27,11,08,10.10
2014,10,27,11,09,10.10
2014,10,27,11,10,10.10
2014,10,27,11,11,10.10
2014,10,27,11,12,10.10
2014,10,27,11,13,10.10
2014,10,27,11,14,10.10
2014,10,27,11,15,10.10
2014,10,27,11,16,10.10
2014,10,27,11,17,10.10
2014,10,27,11,18,10.10
2014,10,27,11,19,10.10
2014,10,27,11,20,10.10
2014,10,27,11,21,10.10
2014,10,27,11,22,10.10
2014,10,27,11,23,10.10
2014,10,27,11,24,10.10
2014,10,27,11,25,10.10
2014,10,27,11,26,10.10
2014,10,27,11,27,10.10
2014,10,27,11,28,10.10
2014,10,27,11,29,10.20
2014,10,27,11,30,10.20
2014,10,27,11,31,10.20
2014,10,27,11,32,10.20
2014,10,27,11,33,10.20
2014,10,27,11,34,10.20
2014,10,27,11,35,10.20
2014,10,27,11,36,10.20
2014,10,27,11,37,10.20
2014,10,27,11,38,10.30
2014,10,27,11,39,10.30
2014,10,27,11,40,10.30
2014,10,27,11,41,10.30
2014,10,27,11,42,10.30
2014,10,27,11,43,10.30
2014,10,27,11,44,10.30
2014,10,27,11,45,10.30
2014,10,27,11,46,10.30
2014,10,27,11,47,10.30
2014,10,27,11,48,10.30
2014,10,27,11,49,10.30
2014,10,27,11,50,10.30
2014,10,27,11,51,10.40
2014,10,27,11,52,10.40
2014,10,27,11,53,10.40
2014,10,27,11,54,10.40
2014,10,27,11,55,10.40
2014,10,27,11,56,10.40
2014,10,27,11,57,10.40
2014,10,27,11,58,10.40
2014,10,27,11,59,10.40
2014,10,27,12,00,10.40
2014,10,27,12,01,10.40
2014,10,27,12,02,10.40
2014,10,27,12,03,10.40
2014,10,27,12,04,10.40
2014,10,27,12,05,10.40
2014,10,27,12,06,10.40
2014,10,27,12,07,10.50
2014,10,27,12,08,10.60
2014,10,27,12,09,10.60
2014,10,27,12,10,10.60
2014,10,27,12,11,10.60
2014,10,27,12,12,10.60
2014,10,27,12,13,10.60
2014,10,27,12,14,10.60
2014,10,27,12,15,10.60
2014,10,27,12,16,10.60
2014,10,27,12,17,10.60
2014,10,27,12,18,10.60
2014,10,27,12,19,10.60
2014,10,27,12,20,10.60
2014,10,27,12,21,10.60
2014,10,27,12,22,10.60
2014,10,27,12,23,10.70
2014,10,27,12,24,10.60
2014,10,27,12,25,10.60
2014,10,27,12,26,10.60
2014,10,27,12,27,10.60
2014,10,27,12,28,10.70
2014,10,27,12,29,10.70
2014,10,27,12,30,10.70
2014,10,27,12,31,10.70
2014,10,27,12,32,10.70
2014,10,27,12,33,10.70
2014,10,27,12,34,10.70
2014,10,27,12,35,10.70
2014,10,27,12,36,10.70
2014,10,27,12,37,10.70
2014,10,27,12,38,10.70
2014,10,27,12,39,10.70
2014,10,27,12,40,10.70
2014,10,27,12,41,10.70
2014,10,27,12,42,10.70
2014,10,27,12,43,10.80
2014,10,27,12,44,10.80
2014,10,27,12,45,10.80
2014,10,27,12,46,10.80
2014,10,27,12,47,10.90
2014,10,27,12,48,10.90
2014,10,27,12,49,10.90
2014,10,27,12,50,10.90
2014,10,27,12,51,10.90
2014,10,27,12,52,10.90
2014,10,27,12,53,10.90
2014,10,27,12,54,11.00
2014,10,27,12,55,10.90
2014,10,27,12,56,10.90
2014,10,27,12,57,10.90
2014,10,27,12,58,10.90
2014,10,27,12,59,10.90
2014,10,27,13,00,11.00
2014,10,27,13,01,11.10
2014,10,27,13,02,11.10
2014,10,27,13,03,11.10
2014,10,27,13,04,11.10
2014,10,27,13,05,11.10
2014,10,27,13,06,11.10
2014,10,27,13,07,11.10
2014,10,27,13,08,11.10
2014,10,27,13,09,11.10
2014,10,27,13,10,11.10
2014,10,27,13,11,11.10
2014,10,27,13,12,11.20
2014,10,27,13,13,11.20
2014,10,27,13,14,11.20
2014,10,27,13,15,11.30
2014,10,27,13,16,11.30
2014,10,27,13,17,11.30
2014,10,27,13,18,11.40
2014,10,27,13,19,11.40
2014,10,27,13,20,11.40
2014,10,27,13,21,11.40
2014,10,27,13,22,11.40
2014,10,27,13,23,11.40
2014,10,27,13,24,11.40
2014,10,27,13,25,11.40
2014,10,27,13,26,11.40
2014,10,27,13,27,11.40
2014,10,27,13,28,11.40
2014,10,27,13,29,11.40
2014,10,27,13,30,11.40
2014,10,27,13,31,11.40
2014,10,27,13,32,11.40
2014,10,27,13,33,11.40
2014,10,27,13,34,11.40
2014,10,27,13,35,11.40
2014,10,27,13,36,11.40
2014,10,27,13,37,11.40
2014,10,27,13,38,11.40
2014,10,27,13,39,11.40
2014,10,27,13,40,11.40
2014,10,27,13,41,11.40
2014,10,27,13,42,11.40
2014,10,27,13,43,11.40
2014,10,27,13,44,11.40
2014,10,27,13,45,11.60
2014,10,27,13,46,11.60
2014,10,27,13,47,11.60
2014,10,27,13,48,11.60
2014,10,27,13,49,11.60
2014,10,27,13,50,11.60
2014,10,27,13,51,11.40
2014,10,27,13,52,11.40
2014,10,27,13,53,11.40
2014,10,27,13,54,11.40
2014,10,27,13,55,11.40
2014,10,27,13,56,11.40
2014,10,27,13,57,11.40
2014,10,27,13,58,11.40
2014,10,27,13,59,11.40
2014,10,27,14,00,11.40
2014,10,27,14,01,11.40
2014,10,27,14,02,11.40
2014,10,27,14,03,11.40
2014,10,27,14,04,11.40
2014,10,27,14,05,11.40
2014,10,27,14,06,11.40
2014,10,27,14,07,11.40
2014,10,27,14,08,11.40
2014,10,27,14,09,11.40
2014,10,27,14,10,11.40
2014,10,27,14,11,11.40
2014,10,27,14,12,11.40
2014,10,27,14,13,11.40
2014,10,27,14,14,11.40
2014,10,27,14,15,11.50
2014,10,27,14,16,11.60
2014,10,27,14,17,11.60
2014,10,27,14,18,11.60
2014,10,27,14,19,11.60
2014,10,27,14,20,11.60
2014,10,27,14,21,11.60
2014,10,27,14,22,11.60
2014,10,27,14,23,11.60
2014,10,27,14,24,11.60
2014,10,27,14,25,11.60
2014,10,27,14,26,11.60
2014,10,27,14,27,11.60
2014,10,27,14,28,11.60
2014,10,27,14,29,11.60
2014,10,27,14,30,11.70
2014,10,27,14,31,11.70
2014,10,27,14,32,11.70
2014,10,27,14,33,11.70
2014,10,27,14,34,11.80
2014,10,27,14,35,11.80
2014,10,27,14,36,11.80
2014,10,27,14,37,11.80
2014,10,27,14,38,11.80
2014,10,27,14,39,11.80
2014,10,27,14,40,11.80
2014,10,27,14,41,11.80
2014,10,27,14,42,11.80
2014,10,27,14,43,11.80
2014,10,27,14,44,11.80
2014,10,27,14,45,11.80
2014,10,27,14,46,11.80
2014,10,27,14,47,11.80
2014,10,27,14,48,11.80
2014,10,27,14,49,11.80
2014,10,27,14,50,11.80
2014,10,27,14,51,11.90
2014,10,27,14,52,11.90
2014,10,27,14,53,11.90
2014,10,27,14,54,11.90
2014,10,27,14,55,11.90
2014,10,27,14,56,11.90
2014,10,27,14,57,11.90
2014,10,27,14,58,11.90
2014,10,27,14,59,11.90
2014,10,27,15,00,11.90
2014,10,27,15,01,11.90
2014,10,27,15,02,11.90
2014,10,27,15,03,11.90
2014,10,27,15,04,11.90
2014,10,27,15,05,11.90
2014,10,27,15,06,11.90
2014,10,27,15,07,11.90
2014,10,27,15,08,11.90
2014,10,27,15,09,11.90
2014,10,27,15,10,11.90
2014,10,27,15,11,11.90
2014,10,27,15,12,12.00
2014,10,27,15,13,12.00
2014,10,27,15,14,12.00
2014,10,27,15,15,12.00
2014,10,27,15,16,12.00
2014,10,27,15,17,12.00
2014,10,27,15,18,12.00
2014,10,27,15,19,12.00
2014,10,27,15,20,12.00
2014,10,27,15,21,12.00
2014,10,27,15,22,12.00
2014,10,27,15,23,12.00
2014,10,27,15,24,12.00
2014,10,27,15,25,12.00
2014,10,27,15,26,12.00
2014,10,27,15,27,12.00
2014,10,27,15,28,12.00
2014,10,27,15,29,12.00
2014,10,27,15,30,12.00
2014,10,27,15,31,12.00
2014,10,27,15,32,12.00
2014,10,27,15,33,12.00
2014,10,27,15,34,12.00
2014,10,27,15,35,12.00
2014,10,27,15,36,12.00
2014,10,27,15,37,12.00
2014,10,27,15,38,12.00
2014,10,27,15,39,12.00
2014,10,27,15,40,12.00
2014,10,27,15,41,12.10
2014,10,27,15,42,12.10
2014,10,27,15,43,12.10
2014,10,27,15,44,12.10
2014,10,27,15,45,12.10
2014,10,27,15,46,12.10
2014,10,27,15,47,12.10
2014,10,27,15,48,12.10
2014,10,27,15,49,12.10
2014,10,27,15,50,12.10
2014,10,27,15,51,12.10
2014,10,27,15,52,12.10
2014,10,27,15,53,12.10
2014,10,27,15,54,12.10
2014,10,27,15,55,12.10
2014,10,27,15,56,12.20
2014,10,27,15,57,12.20
2014,10,27,15,58,12.20
2014,10,27,15,59,12.20
2014,10,27,16,00,12.20
2014,10,27,16,01,12.20
2014,10,27,16,02,12.20
2014,10,27,16,03,12.20
2014,10,27,16,04,12.20
2014,10,27,16,05,12.20
2014,10,27,16,06,12.20
2014,10,27,16,07,12.20
2014,10,27,16,08,12.20
2014,10,27,16,09,12.20
2014,10,27,16,10,12.10
2014,10,27,16,11,12.10
2014,10,27,16,12,12.10
2014,10,27,16,13,12.10
2014,10,27,16,14,12.10
2014,10,27,16,15,12.10
2014,10,27,16,16,12.10
2014,10,27,16,17,12.10
2014,10,27,16,18,12.00
2014,10,27,16,19,12.00
2014,10,27,16,20,12.00
2014,10,27,16,21,12.00
2014,10,27,16,22,12.00
2014,10,27,16,23,12.00
2014,10,27,16,24,12.00
2014,10,27,16,25,12.00
2014,10,27,16,26,12.00
2014,10,27,16,27,12.00
2014,10,27,16,28,12.00
2014,10,27,16,29,12.00
2014,10,27,16,30,12.00
2014,10,27,16,31,11.90
2014,10,27,16,32,11.90
2014,10,27,16,33,11.90
2014,10,27,16,34,11.90
2014,10,27,16,35,11.90
2014,10,27,16,36,11.90
2014,10,27,16,37,11.90
2014,10,27,16,38,11.90
2014,10,27,16,39,11.90
2014,10,27,16,40,11.90
2014,10,27,16,41,11.90
2014,10,27,16,42,11.90
2014,10,27,16,43,11.90
2014,10,27,16,44,11.90
2014,10,27,16,45,11.90
2014,10,27,16,46,11.90
2014,10,27,16,47,11.90
2014,10,27,16,48,11.90
2014,10,27,16,49,11.90
2014,10,27,16,50,11.90
2014,10,27,16,51,11.90
2014,10,27,16,52,11.90
2014,10,27,16,53,11.90
2014,10,27,16,54,11.90
2014,10,27,16,55,11.90
2014,10,27,16,56,11.90
2014,10,27,16,57,11.90
2014,10,27,16,58,11.90
2014,10,27,16,59,11.80
2014,10,27,17,00,11.80
2014,10,27,17,01,11.80
2014,10,27,17,02,11.80
2014,10,27,17,03,11.80
2014,10,27,17,04,11.80
2014,10,27,17,05,11.80
2014,10,27,17,06,11.80
2014,10,27,17,07,11.80
2014,10,27,17,08,11.80
2014,10,27,17,09,11.80
2014,10,27,17,10,11.80
2014,10,27,17,11,11.80
2014,10,27,17,12,11.80
2014,10,27,17,13,11.80
2014,10,27,17,14,11.80
2014,10,27,17,15,11.80
2014,10,27,17,16,11.80
2014,10,27,17,17,11.80
2014,10,27,17,18,11.80
2014,10,27,17,19,11.80
2014,10,27,17,20,11.80
2014,10,27,17,21,11.80
2014,10,27,17,22,11.80
2014,10,27,17,23,11.80
2014,10,27,17,24,11.80
2014,10,27,17,25,11.80
2014,10,27,17,26,11.80
2014,10,27,17,27,11.80
2014,10,27,17,28,11.80
2014,10,27,17,29,11.70
2014,10,27,17,30,11.70
2014,10,27,17,31,11.70
2014,10,27,17,32,11.70
2014,10,27,17,33,11.70
2014,10,27,17,34,11.70
2014,10,27,17,35,11.70
2014,10,27,17,36,11.60
2014,10,27,17,37,11.60
2014,10,27,17,38,11.60
2014,10,27,17,39,11.60
2014,10,27,17,40,11.60
2014,10,27,17,41,11.60
2014,10,27,17,42,11.50
2014,10,27,17,43,11.40
2014,10,27,17,44,11.40
2014,10,27,17,45,11.40
2014,10,27,17,46,11.40
2014,10,27,17,47,11.40
2014,10,27,17,48,11.30
2014,10,27,17,49,11.30
2014,10,27,17,50,11.30